This is the latest recevied weather packets stored in our database for station/object N5YHM-13. If no packets are shown the sender has not sent any weather packets the latest 10 day(s).
| Time | Temp. | Humidity | Pressure | Rain* | Wind** | Luminosity | Snow |
|---|---|---|---|---|---|---|---|
| 1787957002 | 31.67° C | 68% | 1015.9 hPa | 1.78 mm | - | 7 W/m² | - |
| 1787956702 | 31.67° C | 69% | 1016 hPa | 1.78 mm | - | 7 W/m² | - |
| 1787956398 | 32.22° C | 66% | 1015.9 hPa | 0 mm | - | 7 W/m² | - |
| 1787956093 | 32.22° C | 64% | 1015.9 hPa | 0 mm | - | 7 W/m² | - |
| 1787955788 | 32.22° C | 65% | 1015.9 hPa | 0 mm | - | 7 W/m² | - |
| 1787955484 | 32.22° C | 64% | 1016 hPa | 0 mm | - | 8 W/m² | - |
| 1787955182 | 32.22° C | 65% | 1016.1 hPa | 0 mm | - | 8 W/m² | - |
| 1787954879 | 32.22° C | 64% | 1016.1 hPa | 0 mm | - | 10 W/m² | - |
| 1787954574 | 32.22° C | 63% | 1015.9 hPa | 0 mm | - | 9 W/m² | - |
| 1787954268 | 32.22° C | 66% | 1015.9 hPa | 0 mm | - | 11 W/m² | - |
| 1787953963 | 32.22° C | 68% | 1016 hPa | 0 mm | - | 12 W/m² | - |
| 1787953661 | 32.22° C | 66% | 1016.1 hPa | 0 mm | - | 11 W/m² | - |
| 1787953356 | 32.22° C | 68% | 1016.2 hPa | 0 mm | - | 13 W/m² | - |
| 1787953054 | 32.22° C | 67% | 1016.3 hPa | 0 mm | - | 10 W/m² | - |
| 1787952753 | 32.78° C | 66% | 1016.6 hPa | 0 mm | - | 9 W/m² | - |
| 1787952448 | 32.78° C | 65% | 1016.6 hPa | 0 mm | - | 13 W/m² | - |
| 1787952145 | 32.78° C | 65% | 1016.9 hPa | 0 mm | - | 12 W/m² | - |
| 1787951843 | 32.22° C | 66% | 1016.7 hPa | 0 mm | - | 13 W/m² | - |
| 1787951539 | 32.78° C | 64% | 1016.8 hPa | 0 mm | - | 10 W/m² | - |
| 1787951236 | 32.78° C | 66% | 1016.7 hPa | 0 mm | - | 11 W/m² | - |
| 1787950931 | 32.78° C | 67% | 1016.9 hPa | 0 mm | - | 16 W/m² | - |
| 1787950626 | 32.78° C | 66% | 1017 hPa | 0 mm | - | 48 W/m² | - |
| 1787950322 | 32.78° C | 66% | 1017.2 hPa | 0 mm | - | 16 W/m² | - |
| 1787950018 | 32.78° C | 68% | 1017.2 hPa | 0 mm | - | 20 W/m² | - |
| 1787949713 | 32.78° C | 66% | 1017.1 hPa | 0 mm | - | 131 W/m² | - |
* Rain latest hour (hover to see other rain measurements)
** Current wind speed in m/s (hover to see current wind gust speed)